This is the latest recevied weather packets stored in our database for station/object DM5EI-L4. If no packets are shown the sender has not sent any weather packets the latest 10 day(s).
| Time | Temp. | Humidity | Pressure | Rain* | Wind** | Luminosity | Snow |
|---|---|---|---|---|---|---|---|
| 1778175266 | 15.56° C | 96% | 1018 hPa | - | - | - | - |
| 1778174364 | 16.11° C | 96% | 1018 hPa | - | - | - | - |
| 1778173463 | 17.22° C | 95% | 1017 hPa | - | - | - | - |
| 1778172562 | 18.89° C | 93% | 1017 hPa | - | - | - | - |
| 1778171661 | 21.11° C | 92% | 1017 hPa | - | - | - | - |
| 1778170760 | 19.44° C | 94% | 1017 hPa | - | - | - | - |
| 1778169859 | 18.33° C | 93% | 1017 hPa | - | - | - | - |
| 1778168958 | 21.11° C | 91% | 1017 hPa | - | - | - | - |
| 1778168057 | 19.44° C | 93% | 1017 hPa | - | - | - | - |
| 1778167156 | 22.22° C | 92% | 1017 hPa | - | - | - | - |
| 1778166255 | 21.67° C | 93% | 1017 hPa | - | - | - | - |
| 1778165354 | 20° C | 92% | 1017 hPa | - | - | - | - |
| 1778164452 | 21.11° C | 93% | 1017 hPa | - | - | - | - |
| 1778163551 | 20° C | 94% | 1017 hPa | - | - | - | - |
| 1778162650 | 20.56° C | 92% | 1017 hPa | - | - | - | - |
| 1778161749 | 20° C | 95% | 1017 hPa | - | - | - | - |
| 1778160848 | 19.44° C | 97% | 1017 hPa | - | - | - | - |
| 1778159947 | 17.78° C | 97% | 1017 hPa | - | - | - | - |
| 1778159046 | 16.11° C | 96% | 1017 hPa | - | - | - | - |
| 1778158145 | 17.22° C | 97% | 1017 hPa | - | - | - | - |
| 1778157244 | 16.67° C | 96% | 1017 hPa | - | - | - | - |
| 1778156342 | 16.67° C | 97% | 1017 hPa | - | - | - | - |
| 1778155441 | 15.56° C | 97% | 1017 hPa | - | - | - | - |
| 1778154540 | 16.67° C | 97% | 1017 hPa | - | - | - | - |
| 1778153639 | 15.56° C | 96% | 1017 hPa | - | - | - | - |
* Rain since midnight (hover to see other rain measurements)
** Current wind speed in m/s (hover to see current wind gust speed)